METEOR 2-11 DEB, 43309

Orbit data source: Space-Track

METEOR 2-11 DEB, 43309 is space debris in LEO originally from a launch on Thu, 05 Jul 1984 UTC launched from the Plesetsk Missile And Space Complex (PKMTR). Debris objects in space refer to the collection of defunct objects orbiting the Earth. Examples of debris include non-operational satellites, rocket bodies, and fragments generated from explosions, collisions, or faulty payload assembly.

Loading next visibility...
Identifier
43309, 1984-072U
Orbit
LEO
Country
Flag of CISCIS
Related business
Manufacturer
Unknown
Mission
Spacecraft
Bus & Motor
Unknown
Mass
Unknown
Launch date (UTC)
1984-07-05 (42 years ago)
Launch vehicle
Unknown
Launch site
Plesetsk Missile And Space Complex (PKMTR)
Object type
Payload
Rocket body
Debris
Shape & HBR
Unknown shape, 0.1 m
Radar Cross Section
Small (<0.1 m²)

Expand to show TLE details & history
Last TLE update: 1 week ago

TLE from 1 week ago
0 METEOR 2-11 DEB
1 43309U 84072U   26201.67908420  .00001158  00000-0  77961-3 0  9995
2 43309  82.5293 341.6972 0030713 241.8292 117.9773 13.99639266567988
Epoch: 2026-07-20T16:17Z
TLE epoch observation values (Epoch: 2026-07-20T16:17:52.874Z)
Latitude
-0.0001°
Longitude
158.76721°
Altitude
908.502 km
Speed
7.392 km/s
True Right ascension
22h 46m 47s
True Declination
0° 00' 00"
Sunlit
Object was in full shadow at epoch
Visualization orbit readout
Latitude
Unknown
Longitude
Unknown
Altitude
Unknown
Speed
Unknown
Apparent Right ascension
Unknown
Apparent Declination
Unknown
Sunlit
N/A
Visualization observer readout
Local Sidereal Time
07:21:11
Azimuth
Unknown
Elevation
Unknown
Doppler factor
Unknown
Orbital elements
Apogee altitude
914.505 km
Perigee altitude
869.846 km
Semi-major axis
7,270.313 km
Eccentricity
0.00307
Inclination
82.5293°
RAAN
341.6972°
Arg. of periapsis
241.8292°
True anomaly
118.28755°
Mean anomaly
117.9773°
Eccentric anomaly
118.13248°
Mean motion
3.50117 °/min
Orbital period
102.82 mins
BSTAR
0.00077961
Loading maneuver chart data...
Computing Atmospheric mass density...
Loading historical data...
Loading historical data...
Loading historical data...
Loading historical data...
Loading historical data...
Loading historical data...
Loading historical data...

Documentation

Showing up to 5 results
|